Flag for Poland Weather past 2 weeks in Grudziądz, Poland

Now
86 °F

Scattered clouds.


Feels Like: 85 °F
Forecast: 68 / 86 °F
Wind: 2 mph from South

Location: Torun

Current Time: Jul 29, 2014 at 9:11:55 PM

Latest Report: Jul 29, 2014 at 8:00 PM


Visibility: 25 mi

Pressure: 29.74 "Hg

Humidity: 37%

Dew point: 57 °F

Location of GrudziądzLocation

Historic Weather in Grudziądz — Graph

°F

Grudziądz temperature yesterday

Maximum temperature yesterday: 90 °F (at 4:00 PM)
Minimum temperature yesterday: 66 °F (at 5:00 AM)
Average temperature yesterday: 79 °F

Past Weeks' High & Low Weather Summary

 TemperatureHumidityPressure
High90 °F (Jul 29, 5:00 PM)96% (Jul 16, 4:00 AM)30.18 "Hg (Jul 16, 4:00 AM)
Low58 °F (Jul 15, 5:00 AM)27% (Jul 21, 4:00 PM)29.72 "Hg (Jul 29, 6:00 PM)
Average73 °F60%30.00 "Hg
* Reported Jul 14 7:00 PM — Jul 29 7:00 PM, Grudziądz, Weather by CustomWeather, © 2014

Note: Actual official high and low records may vary slightly from our data, if they occured in-between our weather recording intervals... More about our weather records

Advertising

Grudziądz weather history for previous 24 hours

 ConditionsComfort  
Time TempWeatherWind HumidityBarometerVisibility
7:00 PM
Jul 29
88 °FPassing clouds.3 mph34%29.73 "Hg22 mi
6:00 PM90 °FPassing clouds.5 mph33%29.72 "Hg22 mi
5:00 PM90 °FScattered clouds.3 mph32%29.74 "Hg19 mi
4:00 PM89 °FScattered clouds.5 mph33%29.76 "Hg22 mi
3:00 PM89 °FScattered clouds.3 mph33%29.78 "Hg22 mi
2:00 PM87 °FScattered clouds.5 mph36%29.80 "Hg19 mi
1:00 PM88 °FPassing clouds.5 mph37%29.80 "Hg19 mi
12:00 PM86 °FPassing clouds.5 mph43%29.81 "Hg19 mi
11:00 AM84 °FPassing clouds.5 mph48%29.82 "Hg19 mi
10:00 AM82 °FPassing clouds.3 mph54%29.82 "Hg17 mi
9:00 AM77 °FPassing clouds.2 mph62%29.83 "Hg17 mi
8:00 AM74 °FScattered clouds.2 mph69%29.83 "Hg14 mi
7:00 AM71 °FScattered clouds.2 mph73%29.83 "Hg13 mi
6:00 AM68 °FPartly sunny.2 mph80%29.84 "Hg8 mi
5:00 AM67 °FPartly sunny.1 mph81%29.84 "Hg10 mi
4:00 AM68 °FPassing clouds.2 mph78%29.84 "Hg12 mi
3:00 AM70 °FPassing clouds.2 mph74%29.84 "Hg0 mi
2:00 AM70 °FPassing clouds.2 mph73%29.84 "Hg11 mi
1:00 AM70 °FPassing clouds.1 mph75%29.85 "Hg14 mi
12:00 AM74 °FPassing clouds.1 mph68%29.86 "Hg16 mi
11:00 PM
Jul 28
76 °FPassing clouds.1 mph67%29.85 "Hg9 mi
10:00 PM75 °FPassing clouds.1 mph75%29.85 "Hg10 mi
9:00 PM78 °FPassing clouds.1 mph67%29.85 "Hg11 mi
Weather by CustomWeather, © 2014

See weather overviewHow to use our weather pages